Time,TemperatureF,DewpointF,PressureIn,WindDirection,WindDirectionDegrees,WindSpeedMPH,WindSpeedGustMPH,Humidity,HourlyPrecipIn,Conditions,Clouds,dailyrainin,SolarRadiationWatts/m^2,SoftwareType,DateUTC
2013-08-16 00:11:00,55.0,40.0,-100.00,NW,308,6.0,9.0,57,0.00,,,0.00,0.000000,,2013-08-16 08:11:00,
2013-08-16 00:21:00,55.0,40.0,-100.00,NW,308,6.0,9.0,57,0.00,,,0.00,0.000000,,2013-08-16 08:21:00,
2013-08-16 00:31:00,55.0,40.0,-100.00,NW,308,6.0,9.0,57,0.00,,,0.00,0.000000,,2013-08-16 08:31:00,
2013-08-16 00:33:00,53.0,39.0,-100.00,NW,311,3.0,5.0,58,0.00,,,0.00,0.000000,,2013-08-16 08:33:00,
2013-08-16 00:52:00,53.0,39.0,-100.00,NW,311,3.0,5.0,58,0.00,,,0.00,0.000000,,2013-08-16 08:52:00,
2013-08-16 01:01:00,53.0,39.0,-100.00,NW,311,3.0,5.0,58,0.00,,,0.00,0.000000,,2013-08-16 09:01:00,
2013-08-16 01:11:00,53.0,39.0,-100.00,NW,311,3.0,5.0,58,0.00,,,0.00,0.000000,,2013-08-16 09:11:00,
2013-08-16 01:21:00,53.0,39.0,-100.00,NW,311,3.0,5.0,58,0.00,,,0.00,0.000000,,2013-08-16 09:21:00,
2013-08-16 01:33:00,52.0,40.0,-100.00,ENE,63,1.0,5.0,63,0.00,,,0.00,0.000000,,2013-08-16 09:33:00,
2013-08-16 01:53:00,52.0,40.0,-100.00,ENE,63,1.0,5.0,63,0.00,,,0.00,0.000000,,2013-08-16 09:53:00,
2013-08-16 02:03:00,52.0,40.0,-100.00,ENE,63,1.0,5.0,63,0.00,,,0.00,0.000000,,2013-08-16 10:03:00,
2013-08-16 02:13:00,52.0,40.0,-100.00,ENE,63,1.0,5.0,63,0.00,,,0.00,0.000000,,2013-08-16 10:13:00,
2013-08-16 02:23:00,52.0,40.0,-100.00,ENE,63,1.0,5.0,63,0.00,,,0.00,0.000000,,2013-08-16 10:23:00,
2013-08-16 02:52:00,52.0,39.0,-100.00,NNW,329,2.0,4.0,62,0.00,,,0.00,0.000000,,2013-08-16 10:52:00,
2013-08-16 03:02:00,52.0,39.0,-100.00,NNW,329,2.0,4.0,62,0.00,,,0.00,0.000000,,2013-08-16 11:02:00,
2013-08-16 03:12:00,52.0,39.0,-100.00,NNW,329,2.0,4.0,62,0.00,,,0.00,0.000000,,2013-08-16 11:12:00,
2013-08-16 03:21:00,52.0,39.0,-100.00,NNW,329,2.0,4.0,62,0.00,,,0.00,0.000000,,2013-08-16 11:21:00,
2013-08-16 03:32:00,52.0,39.0,-100.00,NNW,329,2.0,4.0,62,0.00,,,0.00,0.000000,,2013-08-16 11:32:00,
2013-08-16 03:52:00,51.0,40.0,-100.00,NW,323,4.0,8.0,65,0.00,,,0.00,0.000000,,2013-08-16 11:52:00,
2013-08-16 04:02:00,51.0,40.0,-100.00,NW,323,4.0,8.0,65,0.00,,,0.00,0.000000,,2013-08-16 12:02:00,
2013-08-16 04:12:00,51.0,40.0,-100.00,NW,323,4.0,8.0,65,0.00,,,0.00,0.000000,,2013-08-16 12:12:00,
2013-08-16 04:21:00,51.0,40.0,-100.00,NW,323,4.0,8.0,65,0.00,,,0.00,0.000000,,2013-08-16 12:21:00,
2013-08-16 04:31:00,51.0,40.0,-100.00,NW,323,4.0,8.0,65,0.00,,,0.00,0.000000,,2013-08-16 12:31:00,
2013-08-16 04:52:00,50.0,40.0,-100.00,NW,319,3.0,6.0,68,0.00,,,0.00,0.000000,,2013-08-16 12:52:00,
2013-08-16 05:02:00,50.0,40.0,-100.00,NW,319,3.0,6.0,68,0.00,,,0.00,0.000000,,2013-08-16 13:02:00,
2013-08-16 05:11:00,50.0,40.0,-100.00,NW,319,3.0,6.0,68,0.00,,,0.00,0.000000,,2013-08-16 13:11:00,
2013-08-16 05:21:00,50.0,40.0,-100.00,NW,319,3.0,6.0,68,0.00,,,0.00,0.000000,,2013-08-16 13:21:00,
2013-08-16 05:32:00,50.0,40.0,-100.00,NW,319,3.0,6.0,68,0.00,,,0.00,0.000000,,2013-08-16 13:32:00,
2013-08-16 05:53:00,49.0,39.0,-100.00,North,351,3.0,6.0,69,0.00,,,0.00,0.000000,,2013-08-16 13:53:00,
2013-08-16 06:02:00,49.0,39.0,-100.00,North,351,3.0,6.0,69,0.00,,,0.00,0.000000,,2013-08-16 14:02:00,
2013-08-16 06:11:00,49.0,39.0,-100.00,North,351,3.0,6.0,69,0.00,,,0.00,0.000000,,2013-08-16 14:11:00,
2013-08-16 06:22:00,49.0,39.0,-100.00,North,351,3.0,6.0,69,0.00,,,0.00,0.000000,,2013-08-16 14:22:00,
2013-08-16 06:31:00,49.0,39.0,-100.00,North,351,3.0,6.0,69,0.00,,,0.00,0.000000,,2013-08-16 14:31:00,
2013-08-16 06:33:00,48.0,41.0,-100.00,NW,322,3.0,5.0,76,0.00,,,0.00,4.000000,,2013-08-16 14:33:00,
2013-08-16 06:52:00,48.0,41.0,-100.00,NW,322,3.0,5.0,76,0.00,,,0.00,4.000000,,2013-08-16 14:52:00,
2013-08-16 07:01:00,48.0,41.0,-100.00,NW,322,3.0,5.0,76,0.00,,,0.00,4.000000,,2013-08-16 15:01:00,
2013-08-16 07:12:00,48.0,41.0,-100.00,NW,322,3.0,5.0,76,0.00,,,0.00,4.000000,,2013-08-16 15:12:00,
2013-08-16 07:22:00,48.0,41.0,-100.00,NW,322,3.0,5.0,76,0.00,,,0.00,4.000000,,2013-08-16 15:22:00,
2013-08-16 07:33:00,48.0,40.0,-100.00,NNW,337,2.0,4.0,73,0.00,,,-99.99,27.000000,,2013-08-16 15:33:00,
2013-08-16 07:56:00,48.0,40.0,-100.00,NNW,337,2.0,4.0,73,0.00,,,-99.99,27.000000,,2013-08-16 15:56:00,
2013-08-16 08:04:00,48.0,40.0,-100.00,NNW,337,2.0,4.0,73,0.00,,,-99.99,27.000000,,2013-08-16 16:04:00,
2013-08-16 08:13:00,48.0,40.0,-100.00,NNW,337,2.0,4.0,73,0.00,,,-99.99,27.000000,,2013-08-16 16:13:00,
2013-08-16 08:23:00,48.0,40.0,-100.00,NNW,337,2.0,4.0,73,0.00,,,-99.99,27.000000,,2013-08-16 16:23:00,
2013-08-16 08:33:00,48.0,38.0,-100.00,South,171,0.0,2.0,67,0.00,,,0.00,134.000000,,2013-08-16 16:33:00,
2013-08-16 08:57:00,48.0,38.0,-100.00,South,171,0.0,2.0,67,0.00,,,0.00,134.000000,,2013-08-16 16:57:00,
2013-08-16 09:03:00,48.0,38.0,-100.00,South,171,0.0,2.0,67,0.00,,,0.00,134.000000,,2013-08-16 17:03:00,
2013-08-16 09:12:00,48.0,38.0,-100.00,South,171,0.0,2.0,67,0.00,,,0.00,134.000000,,2013-08-16 17:12:00,
2013-08-16 09:28:00,48.0,38.0,-100.00,South,171,0.0,2.0,67,0.00,,,0.00,134.000000,,2013-08-16 17:28:00,
2013-08-16 10:00:00,48.0,40.0,-100.00,NW,310,2.0,5.0,75,0.00,,,0.00,211.000000,,2013-08-16 18:00:00,
2013-08-16 10:06:00,48.0,40.0,-100.00,NW,310,2.0,5.0,75,0.00,,,0.00,211.000000,,2013-08-16 18:06:00,
2013-08-16 10:15:00,48.0,40.0,-100.00,NW,310,2.0,5.0,75,0.00,,,0.00,211.000000,,2013-08-16 18:15:00,
2013-08-16 10:28:00,48.0,40.0,-100.00,NW,310,2.0,5.0,75,0.00,,,0.00,211.000000,,2013-08-16 18:28:00,
2013-08-16 10:33:00,49.0,40.0,-100.00,SSW,202,1.0,4.0,72,0.00,,,0.00,239.000000,,2013-08-16 18:33:00,
2013-08-16 10:55:00,49.0,40.0,-100.00,SSW,202,1.0,4.0,72,0.00,,,0.00,239.000000,,2013-08-16 18:55:00,
2013-08-16 11:03:00,49.0,40.0,-100.00,SSW,202,1.0,4.0,72,0.00,,,0.00,239.000000,,2013-08-16 19:03:00,
2013-08-16 11:14:00,49.0,40.0,-100.00,SSW,202,1.0,4.0,72,0.00,,,0.00,239.000000,,2013-08-16 19:14:00,
2013-08-16 11:25:00,49.0,40.0,-100.00,SSW,202,1.0,4.0,72,0.00,,,0.00,239.000000,,2013-08-16 19:25:00,
2013-08-16 11:33:00,51.0,39.0,-100.00,ENE,74,2.0,5.0,63,0.00,,,0.00,291.000000,,2013-08-16 19:33:00,
2013-08-16 11:55:00,51.0,39.0,-100.00,ENE,74,2.0,5.0,63,0.00,,,0.00,291.000000,,2013-08-16 19:55:00,
2013-08-16 12:02:00,51.0,39.0,-100.00,ENE,74,2.0,5.0,63,0.00,,,0.00,291.000000,,2013-08-16 20:02:00,
2013-08-16 12:11:00,51.0,39.0,-100.00,ENE,74,2.0,5.0,63,0.00,,,0.00,291.000000,,2013-08-16 20:11:00,
2013-08-16 12:23:00,51.0,39.0,-100.00,ENE,74,2.0,5.0,63,0.00,,,0.00,291.000000,,2013-08-16 20:23:00,
2013-08-16 12:33:00,-999.0,-99.9,-100.00,ESE,116,1.0,3.0,-999,0.00,,,-99.99,363.000000,,2013-08-16 20:33:00,
2013-08-16 12:52:00,51.0,41.0,-100.00,ESE,116,1.0,3.0,68,0.00,,,-99.99,363.000000,,2013-08-16 20:52:00,
2013-08-16 13:01:00,51.0,41.0,-100.00,ESE,116,1.0,3.0,68,0.00,,,-99.99,363.000000,,2013-08-16 21:01:00,
2013-08-16 13:11:00,51.0,41.0,-100.00,ESE,116,1.0,3.0,68,0.00,,,-99.99,363.000000,,2013-08-16 21:11:00,
2013-08-16 13:25:00,51.0,41.0,-100.00,ESE,116,1.0,3.0,68,0.00,,,-99.99,363.000000,,2013-08-16 21:25:00,
2013-08-16 13:33:00,53.0,42.0,-100.00,ESE,120,2.0,4.0,66,0.00,,,0.00,655.000000,,2013-08-16 21:33:00,
2013-08-16 13:54:00,53.0,42.0,-100.00,ESE,120,2.0,4.0,66,0.00,,,0.00,655.000000,,2013-08-16 21:54:00,
2013-08-16 14:07:00,53.0,42.0,-100.00,ESE,120,2.0,4.0,66,0.00,,,0.00,655.000000,,2013-08-16 22:07:00,
2013-08-16 14:13:00,53.0,42.0,-100.00,ESE,120,2.0,4.0,66,0.00,,,0.00,655.000000,,2013-08-16 22:13:00,
2013-08-16 14:24:00,53.0,42.0,-100.00,ESE,120,2.0,4.0,66,0.00,,,0.00,655.000000,,2013-08-16 22:24:00,
2013-08-16 14:52:00,54.0,40.0,-100.00,SSE,153,2.0,4.0,58,0.00,,,-99.99,539.000000,,2013-08-16 22:52:00,
2013-08-16 15:09:00,54.0,40.0,-100.00,SSE,153,2.0,4.0,58,0.00,,,-99.99,539.000000,,2013-08-16 23:09:00,
2013-08-16 15:23:00,54.0,40.0,-100.00,SSE,153,2.0,4.0,58,0.00,,,-99.99,539.000000,,2013-08-16 23:23:00,
2013-08-16 15:32:00,54.0,40.0,-100.00,SSE,153,2.0,4.0,58,0.00,,,-99.99,539.000000,,2013-08-16 23:32:00,
2013-08-16 15:52:00,56.0,40.0,-100.00,SSW,192,2.0,6.0,54,0.00,,,0.00,633.000000,,2013-08-16 23:52:00,
2013-08-16 16:01:00,56.0,40.0,-100.00,SSW,192,2.0,6.0,54,0.00,,,0.00,633.000000,,2013-08-17 00:01:00,
2013-08-16 16:11:00,56.0,40.0,-100.00,SSW,192,2.0,6.0,54,0.00,,,0.00,633.000000,,2013-08-17 00:11:00,
2013-08-16 16:21:00,56.0,40.0,-100.00,SSW,192,2.0,6.0,54,0.00,,,0.00,633.000000,,2013-08-17 00:21:00,
2013-08-16 16:32:00,56.0,40.0,-100.00,SSW,192,2.0,6.0,54,0.00,,,0.00,633.000000,,2013-08-17 00:32:00,
2013-08-16 16:52:00,58.0,38.0,-100.00,SSW,197,3.0,5.0,48,0.00,,,0.00,585.000000,,2013-08-17 00:52:00,
2013-08-16 17:01:00,58.0,38.0,-100.00,SSW,197,3.0,5.0,48,0.00,,,0.00,585.000000,,2013-08-17 01:01:00,
2013-08-16 17:11:00,58.0,38.0,-100.00,SSW,197,3.0,5.0,48,0.00,,,0.00,585.000000,,2013-08-17 01:11:00,
2013-08-16 17:21:00,58.0,38.0,-100.00,SSW,197,3.0,5.0,48,0.00,,,0.00,585.000000,,2013-08-17 01:21:00,
2013-08-16 17:32:00,58.0,38.0,-100.00,SSW,197,3.0,5.0,48,0.00,,,0.00,585.000000,,2013-08-17 01:32:00,
2013-08-16 17:52:00,58.0,41.0,-100.00,SSW,197,3.0,5.0,53,0.00,,,0.00,545.000000,,2013-08-17 01:52:00,
2013-08-16 18:01:00,58.0,41.0,-100.00,SSW,197,3.0,5.0,53,0.00,,,0.00,545.000000,,2013-08-17 02:01:00,
2013-08-16 18:11:00,58.0,41.0,-100.00,SSW,197,3.0,5.0,53,0.00,,,0.00,545.000000,,2013-08-17 02:11:00,
2013-08-16 18:21:00,58.0,41.0,-100.00,SSW,197,3.0,5.0,53,0.00,,,0.00,545.000000,,2013-08-17 02:21:00,
2013-08-16 18:31:00,58.0,41.0,-100.00,SSW,197,3.0,5.0,53,0.00,,,0.00,545.000000,,2013-08-17 02:31:00,
2013-08-16 18:33:00,58.0,37.0,-100.00,West,264,5.0,10.0,45,0.00,,,0.00,428.000000,,2013-08-17 02:33:00,
2013-08-16 18:52:00,58.0,37.0,-100.00,West,264,5.0,10.0,45,0.00,,,0.00,428.000000,,2013-08-17 02:52:00,
2013-08-16 19:01:00,58.0,37.0,-100.00,West,264,5.0,10.0,45,0.00,,,0.00,428.000000,,2013-08-17 03:01:00,
2013-08-16 19:11:00,58.0,37.0,-100.00,West,264,5.0,10.0,45,0.00,,,0.00,428.000000,,2013-08-17 03:11:00,
2013-08-16 19:21:00,58.0,37.0,-100.00,West,264,5.0,10.0,45,0.00,,,0.00,428.000000,,2013-08-17 03:21:00,
2013-08-16 19:53:00,57.0,39.0,-100.00,WSW,255,4.0,6.0,51,0.00,,,0.00,245.000000,,2013-08-17 03:53:00,
2013-08-16 20:03:00,57.0,39.0,-100.00,WSW,255,4.0,6.0,51,0.00,,,0.00,245.000000,,2013-08-17 04:03:00,
2013-08-16 20:12:00,57.0,39.0,-100.00,WSW,255,4.0,6.0,51,0.00,,,0.00,245.000000,,2013-08-17 04:12:00,
2013-08-16 20:23:00,57.0,39.0,-100.00,WSW,255,4.0,6.0,51,0.00,,,0.00,245.000000,,2013-08-17 04:23:00,
2013-08-16 20:32:00,57.0,39.0,-100.00,WSW,255,4.0,6.0,51,0.00,,,0.00,245.000000,,2013-08-17 04:32:00,
2013-08-16 20:53:00,55.0,42.0,-100.00,WSW,253,4.0,7.0,61,0.00,,,0.00,134.000000,,2013-08-17 04:53:00,
2013-08-16 21:03:00,55.0,42.0,-100.00,WSW,253,4.0,7.0,61,0.00,,,0.00,134.000000,,2013-08-17 05:03:00,
2013-08-16 21:12:00,55.0,42.0,-100.00,WSW,253,4.0,7.0,61,0.00,,,0.00,134.000000,,2013-08-17 05:12:00,
2013-08-16 21:22:00,55.0,42.0,-100.00,WSW,253,4.0,7.0,61,0.00,,,0.00,134.000000,,2013-08-17 05:22:00,
2013-08-16 21:32:00,55.0,42.0,-100.00,WSW,253,4.0,7.0,61,0.00,,,0.00,134.000000,,2013-08-17 05:32:00,
2013-08-16 21:52:00,51.0,42.0,-100.00,WNW,282,6.0,9.0,71,0.00,,,0.00,19.000000,,2013-08-17 05:52:00,
2013-08-16 22:01:00,51.0,42.0,-100.00,WNW,282,6.0,9.0,71,0.00,,,0.00,19.000000,,2013-08-17 06:01:00,
2013-08-16 22:12:00,51.0,42.0,-100.00,WNW,282,6.0,9.0,71,0.00,,,0.00,19.000000,,2013-08-17 06:12:00,
2013-08-16 22:21:00,51.0,42.0,-100.00,WNW,282,6.0,9.0,71,0.00,,,0.00,19.000000,,2013-08-17 06:21:00,
2013-08-16 22:31:00,51.0,42.0,-100.00,WNW,282,6.0,9.0,71,0.00,,,0.00,19.000000,,2013-08-17 06:31:00,
2013-08-16 22:52:00,49.0,42.0,-100.00,WNW,293,7.0,11.0,76,0.00,,,0.00,3.000000,,2013-08-17 06:52:00,
2013-08-16 23:01:00,49.0,42.0,-100.00,WNW,293,7.0,11.0,76,0.00,,,0.00,3.000000,,2013-08-17 07:01:00,
2013-08-16 23:11:00,49.0,42.0,-100.00,WNW,293,7.0,11.0,76,0.00,,,0.00,3.000000,,2013-08-17 07:11:00,
2013-08-16 23:21:00,49.0,42.0,-100.00,WNW,293,7.0,11.0,76,0.00,,,0.00,3.000000,,2013-08-17 07:21:00,
2013-08-16 23:32:00,49.0,42.0,-100.00,WNW,293,7.0,11.0,76,0.00,,,0.00,3.000000,,2013-08-17 07:32:00,